Flag for Finland Weather past 2 weeks in Helsinki, Finland

Now
55 °F

Passing clouds.


Feels Like: 55 °F
Forecast: 56 / 63 °F
Wind: 5 mph from Southeast

Location: Helsinki Malmi Airport

Current Time: Aug 22, 2014 at 3:34:51 AM

Latest Report: Aug 22, 2014 at 2:50 AM


Visibility: N/A

Pressure: 29.74 "Hg

Humidity: 82%

Dew point: 50 °F

Location of HelsinkiLocation

Historic Weather in Helsinki — Graph

°F

Helsinki temperature yesterday

Maximum temperature yesterday: 64 °F (at 12:20 PM)
Minimum temperature yesterday: 55 °F (at 12:20 AM)
Average temperature yesterday: 59 °F

Past Weeks' High & Low Weather Summary

 TemperatureHumidityPressure
High82 °F (Aug 7, 1:20 PM)100% (Aug 7, 5:20 AM)30.01 "Hg (Aug 7, 5:20 AM)
Low50 °F (Aug 17, 6:20 AM)29% (Aug 12, 3:50 PM)29.45 "Hg (Aug 19, 8:20 AM)
Average64 °F79%29.70 "Hg
* Reported Aug 7 2:20 AM — Aug 22 2:20 AM, Helsinki, Weather by CustomWeather, © 2014

Note: Actual official high and low records may vary slightly from our data, if they occured in-between our weather recording intervals... More about our weather records

Advertising

Helsinki weather history for previous 24 hours

 ConditionsComfort  
Time TempWeatherWind HumidityBarometerVisibility
2:20 AM
Aug 22
55 °FClear.5 mph88%29.74 "Hg10 mi
1:50 AM55 °FClear.5 mph88%29.74 "Hg10 mi
1:20 AM55 °FPassing clouds.6 mph88%29.74 "HgN/A
12:50 AM55 °FClear.5 mph88%29.74 "Hg10 mi
12:20 AM55 °FPassing clouds.5 mph88%29.74 "HgN/A
11:50 PM
Aug 21
57 °FPassing clouds.5 mph82%29.74 "HgN/A
11:20 PM57 °FPassing clouds.5 mph82%29.74 "HgN/A
10:50 PM57 °FPassing clouds.6 mph82%29.74 "HgN/A
10:20 PM57 °FPassing clouds.6 mph82%29.74 "HgN/A
9:50 PM57 °FPassing clouds.6 mph82%29.74 "HgN/A
9:20 PM57 °FPassing clouds.5 mph77%29.74 "HgN/A
8:50 PM59 °FPassing clouds.7 mph72%29.74 "HgN/A
8:20 PM59 °FPassing clouds.9 mph72%29.74 "HgN/A
7:50 PM61 °FPassing clouds.10 mph68%29.74 "HgN/A
7:20 PM61 °FPassing clouds.8 mph63%29.74 "HgN/A
6:50 PM61 °FPassing clouds.10 mph63%29.74 "HgN/A
6:20 PM61 °FScattered clouds.14 mph68%29.74 "HgN/A
5:50 PM63 °FPartly sunny.13 mph59%29.74 "HgN/A
5:20 PM63 °FPartly sunny.14 mph64%29.74 "HgN/A
4:50 PM63 °FPartly sunny.15 mph59%29.74 "HgN/A
4:20 PM63 °FScattered clouds.14 mph64%29.74 "HgN/A
3:50 PM63 °FPartly sunny.15 mph68%29.74 "HgN/A
3:20 PM63 °FPartly sunny.17 mph73%29.74 "HgN/A
2:50 PM63 °FScattered clouds.17 mph68%29.74 "HgN/A
2:20 PM63 °FScattered clouds.17 mph68%29.71 "HgN/A
1:50 PM64 °FScattered clouds.16 mph60%29.71 "HgN/A
1:20 PM64 °FScattered clouds.15 mph64%29.71 "HgN/A
12:50 PM63 °FScattered clouds.18 mph68%29.71 "HgN/A
12:20 PM64 °FScattered clouds.17 mph68%29.68 "HgN/A
11:50 AM63 °FScattered clouds.13 mph73%29.68 "HgN/A
11:20 AM59 °FScattered clouds.10 mph82%29.68 "HgN/A
10:50 AM59 °FScattered clouds.13 mph82%29.65 "HgN/A
10:20 AM61 °FBroken clouds.13 mph83%29.65 "HgN/A
9:50 AM61 °FPartly sunny.8 mph88%29.65 "HgN/A
9:20 AM59 °FPartly sunny.9 mph88%29.62 "HgN/A
8:50 AM59 °FPartly sunny.8 mph88%29.62 "HgN/A
8:20 AM59 °FPartly sunny.7 mph94%29.62 "HgN/A
7:50 AM57 °FPartly sunny.8 mph94%29.62 "HgN/A
7:20 AM57 °FPartly sunny.5 mph94%29.59 "HgN/A
6:50 AM57 °FPassing clouds.7 mph94%29.59 "HgN/A
6:20 AM55 °FClear.6 mph100%29.59 "Hg10 mi
5:50 AM55 °FPassing clouds.6 mph100%29.59 "HgN/A
5:20 AM55 °FPassing clouds.7 mph94%29.56 "HgN/A
4:50 AM55 °FPassing clouds.5 mph94%29.56 "HgN/A
4:20 AM55 °FPassing clouds.6 mph94%29.56 "HgN/A
3:50 AM55 °FPassing clouds.6 mph94%29.53 "HgN/A
3:20 AM55 °FPassing clouds.6 mph94%29.53 "HgN/A
Weather by CustomWeather, © 2014

See weather overviewHow to use our weather pages